Lorentz, WV

4:15 PM EDT on August 25, 2016 (GMT -0400)
Buckhannon

Weather History for KW22 - September, 2013

Change the Weather History Date:

Thursday, September 12, 2013

  Actual Average (KEKN) Record (KEKN)
Temperature  
Mean Temperature 72 °F 64 °F  
Max Temperature 80 °F 75 °F 92 °F (1952)
Min Temperature 64 °F 52 °F 34 °F (1917)
Degree Days  
Heating Degree Days 0 3  
Month to date heating degree days 25  
Since 1 July heating degree days 55  
Cooling Degree Days 7 2  
Month to date cooling degree days 29  
Year to date cooling degree days 455  
Growing Degree Days 22 (Base 50)    
Moisture  
Dew Point 68 °F    
Average Humidity 95    
Maximum Humidity 100    
Minimum Humidity 74    
Precipitation  
Precipitation 0.15 in 0.12 in 1.74 in (1971)
Month to date precipitation 1.44  
Year to date precipitation 34.25  
Snow  
Snow 0.00 in - - ()
Month to date snowfall  
Since 1 September snowfall  
Snow Depth -    
Sea Level Pressure  
Sea Level Pressure 30.00 in    
Wind  
Wind Speed 3 mph (SW)    
Max Wind Speed 13 mph    
Max Gust Speed 26 mph    
Visibility 5 miles    
Events Rain    
T = Trace of Precipitation, MM = Missing Value Source: NWS Daily Summary

Daily Weather History Graph

Daily Weather History Graph

Search for Another Location

Airport or City:

Trip Planner

Search our weather history database for the weather conditions in past years. The results will help you decide how hot, cold, wet, or windy it might be!

Date:

Astronomy

Sep. 12, 2013 Rise Set
Actual Time 6:59 AM EDT 7:33 PM EDT
Civil Twilight 6:33 AM EDT 8:00 PM EDT
Nautical Twilight 6:01 AM EDT 8:32 PM EDT
Astronomical Twilight 5:28 AM EDT 9:04 PM EDT
Moon 2:22 PM EDT (9/12) No Moon Set
Length of Visible Light 13h 27m
Length of Day
12h 33m
Waxing Crescent, 50% of the Moon is Illuminated
Sep 12
Waxing Crescent
Sep 12
First Quarter
Sep 19
Full
Sep 26
Last Quarter
Oct 4
New

Hourly Weather History & Observations

Time (EDT) Temp. Heat Index Dew Point Humidity Pressure Visibility Wind Dir Wind Speed Gust Speed Precip Events Conditions
12:15 AM 69.8 °F - 69.8 °F 100% 30.12 in 9.0 mi Calm Calm - N/A   Scattered Clouds
12:35 AM 68.0 °F - 68.0 °F 100% 30.11 in 8.0 mi Calm Calm - N/A   Partly Cloudy
12:55 AM 68.0 °F - 68.0 °F 100% 30.10 in 7.0 mi Calm Calm - N/A   Clear
1:15 AM 68.0 °F - 68.0 °F 100% 30.09 in 7.0 mi Calm Calm - N/A   Clear
1:35 AM 69.8 °F - 69.8 °F 100% 30.09 in 8.0 mi Calm Calm - N/A   Partly Cloudy
1:55 AM 68.0 °F - 68.0 °F 100% 30.09 in 7.0 mi Calm Calm - N/A   Scattered Clouds
2:15 AM 68.0 °F - 68.0 °F 100% 30.08 in 7.0 mi Calm Calm - N/A   Clear
2:35 AM 68.0 °F - 68.0 °F 100% 30.08 in 7.0 mi Calm Calm - N/A   Clear
2:55 AM 68.0 °F - 68.0 °F 100% 30.08 in 7.0 mi Calm Calm - N/A   Clear
3:15 AM 68.0 °F - 68.0 °F 100% 30.08 in 6.0 mi Calm Calm - N/A   Clear
3:35 AM 68.0 °F - 68.0 °F 100% 30.07 in 5.0 mi Calm Calm - N/A   Clear
3:55 AM 68.0 °F - 68.0 °F 100% 30.07 in 5.0 mi SSW 3.5 mph - N/A   Clear
4:15 AM 69.8 °F - 69.8 °F 100% 30.07 in 6.0 mi Calm Calm - N/A   Mostly Cloudy
4:35 AM 69.8 °F - 69.8 °F 100% 30.07 in 6.0 mi Calm Calm - N/A   Scattered Clouds
4:55 AM 69.8 °F - 69.8 °F 100% 30.07 in 5.0 mi Calm Calm - N/A   Partly Cloudy
5:15 AM 69.8 °F - 69.8 °F 100% 30.06 in 5.0 mi Calm Calm - N/A   Clear
5:35 AM 69.8 °F - 69.8 °F 100% 30.06 in 5.0 mi Calm Calm - N/A   Clear
5:55 AM 69.8 °F - 69.8 °F 100% 30.06 in 5.0 mi Calm Calm - N/A   Clear
6:15 AM 69.8 °F - 69.8 °F 100% 30.06 in 5.0 mi Calm Calm - N/A   Clear
6:35 AM 69.8 °F - 69.8 °F 100% 30.06 in 5.0 mi Calm Calm - N/A   Partly Cloudy
6:55 AM 69.8 °F - 69.8 °F 100% 30.06 in 5.0 mi SSW 3.5 mph - N/A   Mostly Cloudy
7:15 AM 71.6 °F - 71.6 °F 100% 30.06 in 5.0 mi SW 5.8 mph - N/A   Scattered Clouds
7:35 AM 71.6 °F - 71.6 °F 100% 30.07 in 5.0 mi SSW 3.5 mph - N/A   Scattered Clouds
7:55 AM 71.6 °F - 71.6 °F 100% 30.06 in 5.0 mi SSW 6.9 mph - N/A   Scattered Clouds
8:15 AM 71.6 °F - 71.6 °F 100% 30.06 in 5.0 mi SSW 6.9 mph - N/A   Mostly Cloudy
8:35 AM 71.6 °F - 71.6 °F 100% 30.05 in 5.0 mi SW 6.9 mph - N/A   Mostly Cloudy
8:55 AM 71.6 °F - 71.6 °F 100% 30.05 in 5.0 mi SW 6.9 mph - N/A   Mostly Cloudy
9:15 AM 71.6 °F - 71.6 °F 100% 30.05 in 5.0 mi SW 5.8 mph - N/A   Mostly Cloudy
9:35 AM 73.4 °F - 71.6 °F 94% 30.05 in 5.0 mi SW 8.1 mph - N/A   Mostly Cloudy
9:55 AM 73.4 °F - 71.6 °F 94% 30.05 in 5.0 mi SW 9.2 mph - N/A   Mostly Cloudy
10:15 AM 73.4 °F - 69.8 °F 88% 30.04 in 5.0 mi SSW 8.1 mph - N/A   Mostly Cloudy
10:35 AM 75.2 °F - 69.8 °F 83% 30.04 in 5.0 mi SW 6.9 mph - N/A   Haze
10:55 AM 73.4 °F - 69.8 °F 88% 30.04 in 5.0 mi SSW 8.1 mph - N/A   Mostly Cloudy
11:15 AM 75.2 °F - 69.8 °F 83% 30.04 in 5.0 mi SW 10.4 mph - N/A   Haze
11:35 AM 75.2 °F - 69.8 °F 83% 30.03 in 5.0 mi SW 9.2 mph - N/A   Haze
11:55 AM 77.0 °F - 69.8 °F 78% 30.03 in 6.0 mi SW 6.9 mph - N/A   Haze
12:15 PM 78.8 °F - 69.8 °F 74% 30.02 in 6.0 mi SW 5.8 mph - N/A   Haze
12:35 PM 78.8 °F - 69.8 °F 74% 30.01 in 6.0 mi WSW 11.5 mph - N/A   Haze
12:55 PM 78.8 °F - 69.8 °F 74% 30.01 in 6.0 mi SW 10.4 mph - N/A   Haze
1:15 PM 75.2 °F - 71.6 °F 89% 30.00 in 1.5 mi WSW 11.5 mph 18.4 mph 0.08 in Rain Rain
1:35 PM 73.4 °F - 68.0 °F 83% 29.99 in 8.0 mi West 8.1 mph - 0.09 in   Partly Cloudy
1:55 PM 75.2 °F - 69.8 °F 83% 29.98 in 8.0 mi SW 6.9 mph - 0.09 in   Clear
2:15 PM 78.8 °F - 71.6 °F 78% 29.97 in 5.0 mi SW 9.2 mph - N/A   Haze
2:35 PM 78.8 °F - 71.6 °F 78% 29.95 in 5.0 mi WSW 10.4 mph - N/A   Haze
2:55 PM 80.6 °F 84.6 °F 71.6 °F 74% 29.94 in 5.0 mi WSW 10.4 mph 16.1 mph N/A   Haze
3:15 PM 71.6 °F - 64.4 °F 78% 29.94 in 8.0 mi NW 10.4 mph 26.5 mph N/A   Mostly Cloudy
3:35 PM 69.8 °F - 64.4 °F 83% 29.95 in 7.0 mi WSW 8.1 mph 19.6 mph N/A   Mostly Cloudy
3:55 PM 68.0 °F - 68.0 °F 100% 29.95 in 2.5 mi NE 3.5 mph - 0.03 in Rain Light Rain
4:15 PM 66.2 °F - 66.2 °F 100% 29.95 in 3.0 mi South 5.8 mph - 0.01 in   Partly Cloudy
4:35 PM 66.2 °F - 66.2 °F 100% 29.94 in 5.0 mi South 10.4 mph - 0.01 in   Partly Cloudy
4:55 PM 66.2 °F - 66.2 °F 100% 29.93 in 4.0 mi South 8.1 mph - 0.01 in   Clear
5:15 PM 66.2 °F - 66.2 °F 100% 29.91 in 3.0 mi South 9.2 mph - N/A Rain Light Rain
5:35 PM 66.2 °F - 66.2 °F 100% 29.90 in 2.5 mi South 12.7 mph - 0.01 in Rain Light Rain
5:55 PM 66.2 °F - 66.2 °F 100% 29.91 in 4.0 mi WSW 5.8 mph - 0.02 in   Partly Cloudy
6:15 PM 66.2 °F - 66.2 °F 100% 29.92 in 6.0 mi WNW 5.8 mph - N/A   Clear
6:35 PM 66.2 °F - 66.2 °F 100% 29.92 in 6.0 mi WSW 6.9 mph - N/A   Clear
6:55 PM 66.2 °F - 66.2 °F 100% 29.92 in 6.0 mi SW 8.1 mph - N/A   Scattered Clouds
7:15 PM 66.2 °F - 66.2 °F 100% 29.92 in 5.0 mi SW 8.1 mph - N/A   Mostly Cloudy
7:35 PM 66.2 °F - 66.2 °F 100% 29.92 in 5.0 mi Calm Calm - N/A   Mostly Cloudy
7:55 PM 66.2 °F - 66.2 °F 100% 29.92 in 7.0 mi SSW 5.8 mph - N/A   Overcast
8:15 PM 66.2 °F - 66.2 °F 100% 29.93 in 7.0 mi SW 4.6 mph - N/A   Overcast
8:35 PM 66.2 °F - 66.2 °F 100% 29.93 in 7.0 mi SW 5.8 mph - N/A   Overcast
8:55 PM 64.4 °F - 64.4 °F 100% 29.93 in 6.0 mi SSW 5.8 mph - N/A   Mostly Cloudy
9:15 PM 64.4 °F - 64.4 °F 100% 29.92 in 5.0 mi SSW 6.9 mph - N/A   Mostly Cloudy
9:35 PM 64.4 °F - 64.4 °F 100% 29.92 in 5.0 mi Calm Calm - N/A   Overcast
9:55 PM 64.4 °F - 64.4 °F 100% 29.91 in 5.0 mi SSW 6.9 mph - N/A   Overcast
10:15 PM 64.4 °F - 64.4 °F 100% 29.91 in 5.0 mi SSW 4.6 mph - N/A   Overcast
10:35 PM 64.4 °F - 64.4 °F 100% 29.90 in 4.0 mi Calm Calm - N/A   Overcast
10:55 PM 64.4 °F - 64.4 °F 100% 29.90 in 3.0 mi SW 5.8 mph - N/A   Overcast
11:15 PM 64.4 °F - 64.4 °F 100% 29.90 in 1.5 mi SW 6.9 mph - N/A   Overcast
11:35 PM 64.4 °F - 64.4 °F 100% 29.90 in 0.8 mi SW 6.9 mph - N/A   Overcast
11:55 PM 64.4 °F - 64.4 °F 100% 29.90 in 0.8 mi SW 5.8 mph - N/A   Overcast